This is the latest recevied weather packets stored in our database for station/object N2PUI. If no packets are shown the sender has not sent any weather packets the latest 10 day(s).
| Time | Temp. | Humidity | Pressure | Rain* | Wind** | Luminosity | Snow |
|---|---|---|---|---|---|---|---|
| 1777489738 | 13.89° C | 78% | 1009.8 hPa | 0 mm | - | 49 W/m² | - |
| 1777489436 | 13.89° C | 78% | 1010.1 hPa | 0 mm | - | 50 W/m² | - |
| 1777489132 | 13.89° C | 78% | 1010.2 hPa | 0 mm | - | 58 W/m² | - |
| 1777488830 | 13.89° C | 79% | 1010.4 hPa | 0 mm | - | 81 W/m² | - |
| 1777488526 | 13.89° C | 79% | 1010.3 hPa | 0 mm | - | 88 W/m² | - |
| 1777488224 | 13.89° C | 79% | 1010.2 hPa | 0 mm | - | 121 W/m² | - |
| 1777487922 | 13.89° C | 79% | 1010.4 hPa | 0 mm | - | 84 W/m² | - |
| 1777487620 | 13.89° C | 79% | 1010.6 hPa | 0 mm | - | 100 W/m² | - |
| 1777487317 | 13.89° C | 79% | 1010.7 hPa | 0 mm | - | 108 W/m² | - |
| 1777487013 | 13.89° C | 79% | 1010.5 hPa | 0 mm | - | 103 W/m² | - |
| 1777486704 | 13.89° C | 79% | 1010.8 hPa | 0 mm | - | 122 W/m² | - |
| 1777486402 | 13.89° C | 79% | 1010.8 hPa | 0 mm | - | 103 W/m² | - |
| 1777486099 | 13.89° C | 78% | 1010.8 hPa | 0 mm | - | 106 W/m² | - |
| 1777485796 | 13.89° C | 78% | 1011.1 hPa | 0 mm | - | 123 W/m² | - |
| 1777485491 | 13.89° C | 78% | 1011 hPa | 0 mm | - | 141 W/m² | - |
| 1777485188 | 13.89° C | 78% | 1011.2 hPa | 0 mm | - | 111 W/m² | - |
| 1777484884 | 13.89° C | 77% | 1011.4 hPa | 0 mm | - | 105 W/m² | - |
| 1777484582 | 13.89° C | 77% | 1011.4 hPa | 0 mm | - | 114 W/m² | - |
| 1777484278 | 13.89° C | 77% | 1011.6 hPa | 0 mm | - | 95 W/m² | - |
| 1777483974 | 13.89° C | 77% | 1011.4 hPa | 0 mm | - | 93 W/m² | - |
| 1777483671 | 13.89° C | 77% | 1011.5 hPa | 0 mm | - | 53 W/m² | - |
| 1777483366 | 13.33° C | 77% | 1011.4 hPa | 0 mm | - | 48 W/m² | - |
| 1777483061 | 13.33° C | 76% | 1011.3 hPa | 0 mm | - | 53 W/m² | - |
| 1777482759 | 13.89° C | 77% | 1011.5 hPa | 0 mm | - | 95 W/m² | - |
| 1777482455 | 13.33° C | 77% | 1011.7 hPa | 0 mm | - | 72 W/m² | - |
* Rain latest hour (hover to see other rain measurements)
** Current wind speed in m/s (hover to see current wind gust speed)